General Aviation Weather

Text Reports

Enter one or more of the following location identifiers separated by a space:

Zip Code, Four-Character ICAO or Three-Character IATA airport codes.

METAR - Aviation Routine Weather Report
KMWK - Mount Airy, North Carolina
Updated at 1:15 AM GMT on August 23, 2014 (9:15 PM EDT):
METAR KMWK 230115Z AUTO 33004KT 25/23 A3003 RMK AO2 T02450230 PWINO
TAF - Terminal Area Forecast
KMWK - Mount Airy, North Carolina
Updated at 1:15 AM GMT on August 23, 2014 (9:15 PM EDT):
No TAF is currently available for this location.
Decoded:
No decoded TAF is available.
PIREP - Pilot Weather Report
KMWK - Mount Airy, North Carolina
Updated at 1:15 AM GMT on August 23, 2014 (9:15 PM EDT):
No PIREP is currently available for this location.
AIRMET - Airmens Meteorological Information
KMWK - Mount Airy, North Carolina
Updated at 1:15 AM GMT on August 23, 2014 (9:15 PM EDT):
No AIRMET is currently available for this location.
SIGMET - Significant Meteorological Information
KMWK - Mount Airy, North Carolina
Updated at 1:15 AM GMT on August 23, 2014 (9:15 PM EDT):
No SIGMET is currently available for this location.
NOTAM - Notice to Airmen
KMWK - Mount Airy, North Carolina
Updated at 1:15 AM GMT on August 23, 2014 (9:15 PM EDT):
No NOTAM is currently available for this location.
Forecast Area
KMWK - Mount Airy, North Carolina
Updated at 1:15 AM GMT on August 23, 2014 (9:15 PM EDT):
No NOTAM is currently available for this location.
Aviation Weather Maps